• In Hungary
  • List of Countries
  • For 7 days
  • Water Temperature
  • Satellite Maps
  • Weather Map
  • News
  • Weather Widgets
  • user-avatar
    Login

    Hourly Weather Kotonu

    Today, 24 October, Tuesday

    Time Temperature Precipitation Wind Pressure Humidity
    00:00 +28°C° 0 mm 2 mps 758 mmHg 84%
    01:00 +28°C° 0.2 mm 2 mps 758 mmHg 85%
    02:00 +28°C° 0.2 mm 2 mps 757 mmHg 85%
    03:00 +28°C° 0.2 mm 2 mps 757 mmHg 86%
    04:00 +28°C° 0 mm 2 mps 757 mmHg 86%
    05:00 +27°C° 0 mm 2 mps 757 mmHg 86%
    06:00 +27°C° 0 mm 2 mps 758 mmHg 86%
    07:00 +29°C° 0 mm 2 mps 758 mmHg 78%
    08:00 +31°C° 0 mm 2 mps 758 mmHg 69%
    09:00 +34°C° 0 mm 2 mps 758 mmHg 60%
    10:00 +36°C° 0 mm 2 mps 758 mmHg 55%
    11:00 +37°C° 0 mm 3 mps 757 mmHg 51%
    12:00 +38°C° 0 mm 3 mps 757 mmHg 47%
    13:00 +37°C° 0 mm 3 mps 756 mmHg 49%
    14:00 +37°C° 0 mm 4 mps 755 mmHg 52%
    15:00 +36°C° 0 mm 4 mps 755 mmHg 55%
    16:00 +34°C° 0 mm 4 mps 755 mmHg 62%
    17:00 +33°C° 0 mm 5 mps 755 mmHg 69%
    18:00 +30°C° 0 mm 5 mps 756 mmHg 76%
    19:00 +30°C° 0.4 mm 5 mps 756 mmHg 77%
    20:00 +30°C° 0.4 mm 5 mps 757 mmHg 79%
    21:00 +29°C° 0.4 mm 5 mps 758 mmHg 80%
    22:00 +29°C° 0 mm 5 mps 758 mmHg 81%
    23:00 +29°C° 0 mm 5 mps 758 mmHg 82%

    Tomorrow, 25 October, Wednesday

    Time Temperature Precipitation Wind Pressure Humidity
    00:00 +29°C° 0 mm 4 mps 758 mmHg 82%
    01:00 +29°C° 0.5 mm 4 mps 757 mmHg 84%
    02:00 +28°C° 0.5 mm 4 mps 757 mmHg 86%
    03:00 +28°C° 0.5 mm 4 mps 757 mmHg 88%
    04:00 +28°C° 0.2 mm 4 mps 757 mmHg 88%
    05:00 +28°C° 0.2 mm 4 mps 757 mmHg 88%
    06:00 +28°C° 0.2 mm 3 mps 757 mmHg 89%
    07:00 +29°C° 0 mm 4 mps 758 mmHg 82%
    08:00 +32°C° 0 mm 4 mps 758 mmHg 75%
    09:00 +33°C° 0 mm 4 mps 759 mmHg 69%
    10:00 +35°C° 0 mm 4 mps 758 mmHg 63%
    11:00 +36°C° 0 mm 4 mps 758 mmHg 57%
    12:00 +37°C° 0 mm 4 mps 757 mmHg 52%
    13:00 +36°C° 0 mm 4 mps 757 mmHg 54%
    14:00 +36°C° 0 mm 4 mps 756 mmHg 57%
    15:00 +35°C° 0 mm 5 mps 756 mmHg 59%
    16:00 +34°C° 0 mm 5 mps 756 mmHg 65%
    17:00 +32°C° 0 mm 4 mps 756 mmHg 71%
    18:00 +30°C° 0 mm 4 mps 757 mmHg 77%
    19:00 +30°C° 0 mm 4 mps 757 mmHg 79%
    20:00 +29°C° 0 mm 4 mps 758 mmHg 81%
    21:00 +29°C° 0 mm 4 mps 759 mmHg 83%
    22:00 +29°C° 0.1 mm 4 mps 759 mmHg 83%
    23:00 +29°C° 0.1 mm 4 mps 759 mmHg 84%

    Day after tomorrow, 26 October, Thursday

    Time Temperature Precipitation Wind Pressure Humidity
    00:00 +29°C° 0.1 mm 4 mps 758 mmHg 84%
    01:00 +28°C° 0 mm 4 mps 758 mmHg 85%
    02:00 +28°C° 0 mm 4 mps 758 mmHg 86%
    03:00 +28°C° 0 mm 3 mps 757 mmHg 87%
    04:00 +28°C° 0 mm 3 mps 757 mmHg 87%
    05:00 +28°C° 0 mm 3 mps 758 mmHg 87%
    06:00 +28°C° 0 mm 3 mps 758 mmHg 88%
    07:00 +30°C° 0 mm 3 mps 758 mmHg 79%
    08:00 +31°C° 0 mm 3 mps 759 mmHg 71%
    09:00 +34°C° 0 mm 3 mps 759 mmHg 62%
    10:00 +34°C° 0 mm 3 mps 759 mmHg 62%
    11:00 +34°C° 0 mm 3 mps 758 mmHg 62%
    12:00 +34°C° 0 mm 3 mps 758 mmHg 63%
    13:00 +34°C° 0.1 mm 4 mps 757 mmHg 61%
    14:00 +35°C° 0.1 mm 4 mps 756 mmHg 59%
    15:00 +35°C° 0.1 mm 4 mps 756 mmHg 57%
    16:00 +34°C° 0 mm 4 mps 756 mmHg 64%
    17:00 +32°C° 0 mm 4 mps 757 mmHg 70%
    18:00 +30°C° 0 mm 3 mps 757 mmHg 76%
    19:00 +30°C° 0 mm 3 mps 757 mmHg 78%
    20:00 +29°C° 0 mm 3 mps 758 mmHg 80%
    21:00 +29°C° 0 mm 3 mps 759 mmHg 83%
    22:00 +29°C° 0 mm 4 mps 759 mmHg 83%
    23:00 +29°C° 0 mm 4 mps 759 mmHg 84%

    27 October, Friday

    Time Temperature Precipitation Wind Pressure Humidity
    00:00 +29°C° 0 mm 4 mps 758 mmHg 85%
    01:00 +29°C° 0 mm 3 mps 758 mmHg 85%
    02:00 +28°C° 0 mm 3 mps 757 mmHg 85%
    03:00 +28°C° 0 mm 3 mps 757 mmHg 86%
    04:00 +28°C° 0 mm 3 mps 757 mmHg 86%
    05:00 +28°C° 0 mm 3 mps 757 mmHg 87%
    06:00 +28°C° 0 mm 3 mps 758 mmHg 88%
    07:00 +29°C° 0 mm 3 mps 758 mmHg 81%
    08:00 +31°C° 0 mm 3 mps 758 mmHg 75%
    09:00 +33°C° 0 mm 3 mps 758 mmHg 68%
    10:00 +33°C° 0 mm 3 mps 758 mmHg 66%
    11:00 +34°C° 0 mm 3 mps 757 mmHg 64%
    12:00 +34°C° 0 mm 3 mps 757 mmHg 62%
    13:00 +35°C° 0.1 mm 3 mps 756 mmHg 60%
    14:00 +35°C° 0.1 mm 3 mps 756 mmHg 58%
    15:00 +36°C° 0.1 mm 3 mps 755 mmHg 56%
    16:00 +34°C° 0 mm 3 mps 755 mmHg 63%
    17:00 +33°C° 0 mm 3 mps 756 mmHg 69%
    18:00 +30°C° 0 mm 3 mps 756 mmHg 75%
    19:00 +30°C° 0 mm 4 mps 756 mmHg 77%
    20:00 +30°C° 0 mm 4 mps 757 mmHg 79%
    21:00 +29°C° 0 mm 4 mps 758 mmHg 81%
    22:00 +29°C° 0 mm 4 mps 757 mmHg 83%
    23:00 +29°C° 0 mm 4 mps 757 mmHg 84%

    28 October, Saturday

    Time Temperature Precipitation Wind Pressure Humidity
    00:00 +29°C° 0 mm 4 mps 757 mmHg 85%
    01:00 +29°C° 0 mm 4 mps 757 mmHg 86%
    02:00 +28°C° 0 mm 4 mps 756 mmHg 87%
    03:00 +28°C° 0 mm 4 mps 756 mmHg 88%
    04:00 +28°C° 0 mm 4 mps 756 mmHg 88%
    05:00 +28°C° 0 mm 4 mps 757 mmHg 88%
    06:00 +28°C° 0 mm 3 mps 757 mmHg 89%
    07:00 +30°C° 0 mm 3 mps 758 mmHg 81%
    08:00 +31°C° 0 mm 3 mps 758 mmHg 74%
    09:00 +34°C° 0 mm 3 mps 758 mmHg 66%
    10:00 +34°C° 0 mm 3 mps 757 mmHg 63%
    11:00 +35°C° 0 mm 3 mps 757 mmHg 61%
    12:00 +35°C° 0 mm 3 mps 756 mmHg 58%
    13:00 +35°C° 0 mm 4 mps 756 mmHg 58%
    14:00 +35°C° 0 mm 4 mps 755 mmHg 58%
    15:00 +35°C° 0 mm 4 mps 755 mmHg 58%
    16:00 +34°C° 0.1 mm 4 mps 755 mmHg 64%
    17:00 +32°C° 0.1 mm 4 mps 755 mmHg 71%
    18:00 +30°C° 0.1 mm 4 mps 756 mmHg 77%
    19:00 +30°C° 0.2 mm 4 mps 756 mmHg 80%
    20:00 +29°C° 0.2 mm 4 mps 757 mmHg 83%
    21:00 +29°C° 0.2 mm 4 mps 757 mmHg 86%
    22:00 +29°C° 0.1 mm 4 mps 757 mmHg 87%
    23:00 +28°C° 0.1 mm 4 mps 757 mmHg 88%

    29 October, Sunday

    Time Temperature Precipitation Wind Pressure Humidity
    00:00 +28°C° 0.1 mm 4 mps 757 mmHg 89%
    01:00 +28°C° 0.9 mm 4 mps 756 mmHg 89%
    02:00 +28°C° 0.9 mm 4 mps 756 mmHg 89%
    03:00 +28°C° 0.9 mm 4 mps 756 mmHg 89%
    04:00 +28°C° 0 mm 4 mps 756 mmHg 89%
    05:00 +28°C° 0 mm 3 mps 757 mmHg 90%
    06:00 +28°C° 0 mm 3 mps 757 mmHg 90%
    07:00 +29°C° 0 mm 3 mps 757 mmHg 83%
    08:00 +31°C° 0 mm 3 mps 757 mmHg 75%
    09:00 +33°C° 0 mm 3 mps 757 mmHg 67%
    10:00 +34°C° 0 mm 3 mps 757 mmHg 62%
    11:00 +36°C° 0 mm 4 mps 756 mmHg 57%
    12:00 +37°C° 0 mm 4 mps 756 mmHg 52%
    13:00 +36°C° 0 mm 4 mps 755 mmHg 54%
    14:00 +36°C° 0 mm 4 mps 755 mmHg 56%
    15:00 +35°C° 0 mm 4 mps 754 mmHg 58%
    16:00 +34°C° 0 mm 4 mps 754 mmHg 64%
    17:00 +32°C° 0 mm 4 mps 755 mmHg 71%
    18:00 +30°C° 0 mm 4 mps 755 mmHg 77%
    19:00 +30°C° 0.1 mm 4 mps 756 mmHg 79%
    20:00 +29°C° 0.1 mm 4 mps 756 mmHg 81%
    21:00 +29°C° 0.1 mm 3 mps 756 mmHg 84%
    22:00 +29°C° 0 mm 4 mps 756 mmHg 85%
    23:00 +29°C° 0 mm 4 mps 756 mmHg 86%

    30 October, Monday

    Time Temperature Precipitation Wind Pressure Humidity
    00:00 +28°C° 0 mm 4 mps 756 mmHg 87%
    01:00 +28°C° 0.6 mm 4 mps 756 mmHg 88%
    02:00 +28°C° 0.6 mm 4 mps 755 mmHg 89%
    03:00 +28°C° 0.6 mm 4 mps 755 mmHg 90%
    04:00 +28°C° 0 mm 4 mps 756 mmHg 90%
    05:00 +28°C° 0 mm 4 mps 756 mmHg 90%
    06:00 +28°C° 0 mm 4 mps 756 mmHg 90%
    07:00 +29°C° 0 mm 4 mps 757 mmHg 83%
    08:00 +32°C° 0 mm 4 mps 757 mmHg 76%
    09:00 +33°C° 0 mm 4 mps 757 mmHg 69%
    10:00 +33°C° 0 mm 4 mps 757 mmHg 68%
    11:00 +33°C° 0 mm 4 mps 756 mmHg 67%
    12:00 +33°C° 0 mm 4 mps 756 mmHg 66%
    13:00 +34°C° 0 mm 4 mps 755 mmHg 64%
    14:00 +34°C° 0 mm 4 mps 755 mmHg 62%
    15:00 +34°C° 0 mm 4 mps 754 mmHg 60%
    16:00 +33°C° 0 mm 4 mps 755 mmHg 65%
    17:00 +32°C° 0 mm 4 mps 755 mmHg 70%
    18:00 +30°C° 0 mm 3 mps 755 mmHg 75%
    19:00 +29°C° 0 mm 3 mps 756 mmHg 78%
    20:00 +29°C° 0 mm 3 mps 756 mmHg 80%
    21:00 +29°C° 0 mm 3 mps 757 mmHg 82%
    22:00 +29°C° 0 mm 3 mps 757 mmHg 83%
    23:00 +28°C° 0 mm 3 mps 757 mmHg 83%
    Show more